Location: Rock Island IL
(41.5000°N, 90.5500°W)
Time: 17:03:04
(UTC-05:00)

Daily predictions for brighter satellites

Satellite Brightness Start Highest point End
(mag) Time Altitude Azimuth Time Altitude Azimuth Time Altitude Azimuth
Cosmos 1674 Rocket 4.4 20:49:38 10° N 20:53:44 34° ENE 20:57:46 10° SE
NOSS 2-2 (D) 3.5 20:59:02 10° SSW 21:03:04 65° ESE 21:07:44 10° NE
COSMOS 2406 3.3 20:57:28 10° NNW 21:03:14 71° ENE 21:08:55 10° SSE
ATLAS 5 CENTAUR R/B 2.5 20:57:53 10° NNW 21:03:56 81° NE 21:10:23 10° SE
SL-27 R/B 3.1 21:02:01 10° N 21:05:33 43° ENE 21:09:00 10° SE
SJ-11-01 4.3 21:05:49 10° SSE 21:10:33 79° ENE 21:15:20 10° N
ALOS 3.7 21:08:23 10° SSW 21:12:45 39° W 21:17:08 10° NNW
NOSS 2-2 (C) 3.6 21:13:40 10° SW 21:17:45 89° WNW 21:22:32 10° NE
Cosmos 1238 Rocket 4.0 21:15:45 10° NNE 21:18:12 20° ENE 21:20:10 13° ESE
Coronas F rocket 1.9 21:15:44 10° SSW 21:18:20 57° W 21:20:58 10° N
Cosmos 2278 Rocket 3.1 21:13:51 10° SSE 21:18:32 27° ESE 21:23:15 10° NE
Meteor 1-10 Rocket 4.3 21:14:50 10° N 21:20:43 81° E 21:26:26 10° SSE
Cosmos 1844 4.0 21:16:35 10° S 21:22:01 45° ESE 21:27:31 10° NE
Cosmos 1975 Rocket 4.4 21:19:14 10° NNE 21:22:39 22° ENE 21:25:17 14° ESE
SPOT 5 3.5 21:17:38 10° SE 21:22:40 49° ENE 21:27:50 10° N
SL-08 ROCKET BODY 4.4 21:17:39 10° S 21:23:42 86° E 21:29:40 10° N
ISS -1.8 21:21:52 10° S 21:24:06 17° SE 21:25:57 12° E
Cosmos 1825 3.3 21:21:19 12° SE 21:24:12 27° E 21:27:28 10° NNE
Envisat 3.0 21:20:37 10° SSE 21:25:39 72° ENE 21:30:45 10° N
Cosmos 1844 Rocket 2.7 21:21:04 10° SSW 21:26:39 67° ESE 21:32:16 10° NNE
Cosmos 1624 Rocket 4.3 21:21:56 10° SSW 21:27:12 76° WNW 21:32:32 10° NNE
Cosmos 1862 4.0 21:24:11 10° SSE 21:27:55 36° E 21:31:41 10° NNE
Terra 4.0 21:27:01 10° ENE 21:28:26 11° ENE 21:29:51 10° NE
ERBS 3.1 21:27:42 10° NW 21:31:03 46° SW 21:33:42 15° SSE
deb Chang Zheng 4 3.6 21:26:46 10° NNE 21:31:11 75° ESE 21:35:36 10° S
YAOGAN 6 3.5 21:29:22 16° SE 21:31:32 31° ENE 21:34:41 10° N
Cosmos 1408 3.4 21:29:47 14° SSE 21:32:23 32° E 21:35:41 10° NNE
Cosmos 1908 Rocket 3.8 21:28:09 10° S 21:32:24 52° E 21:36:43 10° NNE
Cosmos 2154 Rocket 4.1 21:27:43 10° S 21:33:48 58° E 21:39:53 10° NNE
Cosmos 1733 Rocket 3.6 21:32:08 10° SSW 21:36:29 61° W 21:40:51 10° N
NOSS 2-2 (E) 4.5 21:32:26 10° SW 21:36:32 55° NW 21:41:25 10° NNE
Cosmos 2082 Rocket 3.9 21:33:15 10° N 21:37:21 20° NE 21:41:15 11° E
Cosmos 1378 Rocket 3.8 21:33:17 10° N 21:37:29 48° E 21:40:33 17° SSE
H-2A R/B 3.8 21:34:39 12° ESE 21:37:51 19° ENE 21:41:31 10° NNE
MetOp-A 4.3 21:34:31 14° SSE 21:39:06 59° ENE 21:44:22 10° N
Cosmos 2184 Rocket 4.5 21:34:37 10° SSW 21:40:42 63° W 21:46:52 10° N
USA 245 4.1 21:40:07 20° ESE 21:41:36 29° ENE 21:44:55 10° N
SL-8 R/B 4.1 21:37:00 10° WSW 21:41:48 66° NNW 21:46:36 10° ENE
PSLV R/B 4.2 21:38:44 10° W 21:41:55 35° SSW 21:43:37 21° SSE
Cosmos 1242 Rocket 4.0 21:39:38 10° NNE 21:42:36 23° ENE 21:43:57 19° ESE
GPS 2-05 Rocket1 4.3 21:40:15 10° SSW 21:43:03 20° SSE 21:43:27 20° SSE
Cosmos 407 Rocket 3.5 21:38:44 10° NNW 21:44:02 89° W 21:48:30 15° SSE
BREEZE-M DEB (TANK) 3.7 21:43:38 10° W 21:45:31 24° SSW 21:47:10 17° SSE
ERS-1 Rocket 3.9 21:44:03 10° S 21:48:52 45° W 21:53:43 10° NNW
Cosmos 2084 3.4 21:45:23 10° SSW 21:49:04 43° ESE 21:52:43 10° NE
Meteor 1-27 Rocket 3.6 21:44:43 10° N 21:50:20 85° E 21:55:04 14° S
Cosmos 1452 Rocket 3.5 21:45:56 10° S 21:51:09 70° ESE 21:56:24 10° NNE
SPOT 1/Viking Rocket 3.9 21:49:14 20° SE 21:52:43 52° ENE 21:57:47 10° N
Nimbus 7 Rocket 4.5 21:48:39 10° NNE 21:54:36 84° WNW 22:00:35 10° SSW
Cosmos 1782 3.8 21:51:29 10° NNW 21:55:21 46° W 21:59:12 10° SSW
Cosmos 1140 Rocket 4.0 21:50:32 10° N 21:55:27 44° ENE 21:58:17 23° SE
Cosmos 1939 Rocket 4.1 21:56:06 10° SSW 21:59:40 36° W 22:03:19 10° NNW
Cosmos 1606 3.0 21:56:47 10° NNW 22:00:43 69° W 22:03:33 18° S
H-2A R/B 3.0 21:58:21 10° S 22:02:31 45° W 22:06:36 10° NNW
NOAA 11 4.4 21:59:37 22° SE 22:03:02 56° ENE 22:08:25 10° N
UNK 4.4 22:00:48 10° NNE 22:07:04 78° ESE 22:13:02 10° S
Atlas Centaur 2 3.2 22:05:15 10° SW 22:06:28 13° SSW 22:06:28 13° SSW
USA 234 3.6 22:02:23 10° ENE 22:08:22 37° SE 22:14:19 10° SSW
CZ-4B R/B 3.4 22:04:45 10° NNE 22:09:42 63° ESE 22:13:01 20° S
CZ-4 R/B 3.9 22:11:34 10° NNE 22:16:09 53° E 22:18:11 30° SSE
BREEZE-M DEB 4.4 22:15:52 10° WSW 22:20:04 73° NNW 22:22:14 16° NE
Cosmos 1184 Rocket 3.0 22:18:32 27° SSW 22:20:12 69° W 22:23:33 10° N
Cosmos 1850 Rocket 4.2 22:19:02 10° NNW 22:24:18 60° ENE 22:26:29 34° SE
BREEZE-M DEB (TANK) 4.1 22:23:08 10° NW 22:24:45 18° N 22:26:59 10° NE
Okean 2 Rocket 3.0 22:22:51 23° S 22:25:38 84° W 22:30:04 10° N
Cosmos 2218 Rocket 4.1 22:25:46 26° SSE 22:29:24 62° E 22:35:43 10° NNE
Cosmos 1174 4.4 22:29:27 10° NW 22:32:19 31° WSW 22:32:40 30° SW
Cosmos 1954 Rocket 4.4 22:27:56 10° NNW 22:33:02 57° WSW 22:35:45 27° S
IGS 5A 4.2 22:32:35 35° E 22:33:13 37° ENE 22:37:04 10° N
DELTA 2 DEB (DPAF) 4.1 22:36:15 46° SE 22:37:27 69° ENE 22:41:55 10° N
Cosmos 1741 Rocket 3.9 22:38:12 10° NNW 22:43:28 85° ENE 22:45:10 44° SSE
ARGOS 3.5 22:42:39 29° S 22:45:22 61° W 22:50:41 10° NNW
Cosmos 1727 Rocket 4.0 22:39:43 10° N 22:45:51 62° E 22:48:04 39° SE
ATLAS 5 CENTAUR R/B 4.4 22:44:01 10° WNW 22:48:08 19° WSW 22:52:23 10° SSW
COSMOS 2487 3.8 22:46:00 10° NW 22:49:16 33° WSW 22:49:57 30° SW
Landsat 7 3.7 22:48:20 48° S 22:49:42 87° W 22:54:30 10° NNW
Cosmos 1959 Rocket 4.4 22:46:48 28° S 22:50:12 90° E 22:56:21 10° N
Meteor 1-18 Rocket 4.3 22:46:07 10° N 22:52:00 68° ENE 22:53:54 43° SE
USA 229 DEB 4.0 22:46:00 10° NNW 22:53:03 63° NE 22:56:14 34° ESE
USA 229 4.0 22:46:06 10° NNW 22:53:09 62° NE 22:56:21 34° ESE
Meteor 1-14 Rocket 4.2 22:50:48 28° SSW 22:53:59 80° W 22:59:37 10° N
APEX 3.7 22:57:54 36° SW 22:59:24 67° WNW 23:04:22 10° NNE
ISS -1.9 22:57:02 10° WSW 23:05:23 - NE 22:59:03 32° W
DNEPR-1 R/B 3.8 22:55:34 10° NW 23:00:51 65° WSW 23:01:40 54° SSW
CARTOSAT-1 3.4 23:01:47 70° S 23:02:16 87° WSW 23:06:36 10° NNW
Cosmos 2278 Rocket 3.3 22:56:59 10° SW 23:02:22 43° WNW 23:07:46 10° NNE
Cosmos 1110 Rocket 4.2 23:02:20 48° ESE 23:02:27 48° ESE 23:07:27 10° NNE
Timation 2 Rocket 4.1 22:56:49 10° NNW 23:02:44 62° WSW 23:04:45 40° S
Cosmos 1833 Rocket 2.7 22:59:21 10° NNW 23:04:58 69° ENE 23:06:17 51° SE
Terra 1.7 23:04:36 61° S 23:05:27 86° WSW 23:10:15 10° NNW
Spot 4 3.7 23:08:31 64° SE 23:09:13 78° ENE 23:14:05 10° N
Meteor 2-19 Rocket 4.3 23:11:00 45° S 23:13:03 85° E 23:19:13 10° N
Cosmos 1339 Rocket 4.4 23:07:01 10° N 23:13:12 84° E 23:14:58 50° SSE
Cosmos 1536 Rocket 3.6 23:09:00 10° NNW 23:13:29 72° W 23:13:54 66° SW
Cosmos 1812 3.0 23:12:21 10° N 23:15:44 64° NNE 23:15:44 64° NNE
H-2A R/B 2.4 23:15:17 44° SSW 23:16:47 61° W 23:22:05 10° NNW
ASTEX 1 3.3 23:13:23 10° N 23:18:21 70° E 23:18:38 68° ESE
Lacrosse 5 4.2 23:22:40 11° ENE 23:22:40 11° ENE 23:22:58 10° ENE
Cosmos 2082 Rocket 2.2 23:16:19 10° NNW 23:22:00 70° WSW 23:23:06 56° SSW
Cosmos 1821 Rocket 4.5 23:21:37 40° ESE 23:22:16 42° E 23:28:04 10° NNE
Meteor 1-11 Rocket 4.2 23:22:41 43° E 23:22:56 43° E 23:28:23 10° NNE
Timation 1 Rocket 4.2 23:22:04 56° S 23:23:17 72° ESE 23:29:17 10° NNE
Cosmos 1486 Rocket 4.5 23:20:16 10° N 23:25:26 47° ENE 23:26:01 45° E
Gbstr 26 Del rocket 4.2 23:25:52 10° NW 23:30:23 37° NNE 23:31:25 32° NE
Cosmos 1934 Rocket 4.3 23:38:39 46° E 23:38:55 46° E 23:44:40 10° NNE
Cosmos 1536 4.5 23:43:44 26° NE 23:43:44 26° NE 23:45:51 10° NNE
NOSS 3-1 (C) 4.4 23:35:26 10° NNW 23:42:47 55° NE 23:46:10 35° ESE
CZ-3 Stage 3 4.4 23:07:51 10° W 23:43:48 43° SSW 23:45:24 40° S
Cosmos 1400 Rocket 4.2 23:45:55 32° NE 23:45:55 32° NE 23:48:25 10° NNE
ALOS 2 4.0 23:49:23 29° NE 23:49:23 29° NE 23:52:42 10° N
USA 234 3.6 23:45:06 10° NE 23:51:34 65° NW 23:58:00 10° WSW
